Location: Crescent
(42.8242°N, 73.7329°W)
Time: 07:32:52
(UTC+00:00)

Explorer 7 - Pass Details

Date: 16 November 2024
Orbit: 455 x 597 km, 50.3° (Epoch: 09 December)

Event Time Altitude Azimuth Distance (km) Brightness Sun altitude
Exits shadow 09:00:15 18° 43° (NE) 1,389 9.3 -30.8°
Drops below altitude 10° 09:01:33 10° 53° (NE) 1,830 10.1 -30.6°
Sets 09:04:02 0° 63° (ENE) 2,754 11.3 -30.1°
